Kerkyra, Greece

8:35 PM EET on February 07, 2016 (GMT +0200)
Ioannis Kapodistrias

Weather History for LGKR - April, 2013

Change the Weather History Date:

Wednesday, April 3, 2013

  Actual Average Record
Temperature  
Mean Temperature 56 °F -  
Max Temperature 63 °F 68 °F 71 °F (2011)
Min Temperature 48 °F 50 °F 42 °F (1997)
Degree Days  
Heating Degree Days 10    
Growing Degree Days 6 (Base 50)    
Moisture  
Dew Point 50 °F    
Average Humidity 82    
Maximum Humidity 100    
Minimum Humidity 51    
Precipitation  
Precipitation 0.02 in 0.08 in - ()
Sea Level Pressure  
Sea Level Pressure 29.59 in    
Wind  
Wind Speed 3 mph ()    
Max Wind Speed 17 mph    
Max Gust Speed -    
Visibility 6.4 miles    
Events Rain    
Averages and records for this station are not official NWS values.
T = Trace of Precipitation, MM = Missing Value Source: Averaged Metar Reports

Daily Weather History Graph

Daily Weather History Graph

Search for Another Location

Airport or City:

Trip Planner

Search our weather history database for the weather conditions in past years. The results will help you decide how hot, cold, wet, or windy it might be!

Date:

Astronomy

Apr. 03, 2013 Rise Set
Actual Time 7:21 AM EEST 8:06 PM EEST
Civil Twilight 6:54 AM EEST 8:33 PM EEST
Nautical Twilight 6:22 AM EEST 9:05 PM EEST
Astronomical Twilight 5:48 AM EEST 9:39 PM EEST
Moon 2:45 AM EEST (4/3) 12:59 PM EEST (4/3)
Length of Visible Light 13h 39m
Length of Day
12h 44m
Waning Gibbous, 48% of the Moon is Illuminated
Apr 3
Waning Gibbous
Apr 10
New
Apr 18
First Quarter
Apr 25
Full
May 2
Last Quarter

Hourly Weather History & Observations

Time (EEST) Temp. Dew Point Humidity Pressure Visibility Wind Dir Wind Speed Gust Speed Precip Events Conditions
12:20 AM 53.6 °F 51.8 °F 94% 29.53 in 6.2 mi Calm Calm - N/A   Overcast
12:50 AM 53.6 °F 51.8 °F 94% 29.56 in 6.2 mi Calm Calm - N/A   Overcast
1:20 AM 53.6 °F 51.8 °F 94% 29.56 in 6.2 mi Calm Calm - N/A   Mostly Cloudy
1:50 AM 51.8 °F 51.8 °F 100% 29.53 in 6.2 mi Calm Calm - N/A   Mostly Cloudy
2:20 AM 51.8 °F 51.8 °F 100% 29.53 in 6.2 mi Calm Calm - N/A   Mostly Cloudy
3:00 AM 53 °F 50 °F 84% 29.55 in 6 mi Calm Calm - -   Partly Cloudy
3:20 AM 51.8 °F 50.0 °F 94% 29.53 in 6.2 mi Calm Calm - N/A   Mostly Cloudy
3:50 AM 51.8 °F 50.0 °F 94% 29.53 in 6.2 mi Calm Calm - N/A   Mostly Cloudy
4:20 AM 51.8 °F 50.0 °F 94% 29.53 in 6.2 mi Calm Calm - N/A   Scattered Clouds
4:50 AM 51.8 °F 50.0 °F 94% 29.53 in 6.2 mi Calm Calm - N/A   Scattered Clouds
5:20 AM 51.8 °F 50.0 °F 94% 29.53 in 6.2 mi Calm Calm - N/A   Scattered Clouds
5:50 AM 50.0 °F 50.0 °F 100% 29.53 in 6.2 mi Calm Calm - N/A   Scattered Clouds
6:20 AM 50.0 °F 50.0 °F 100% 29.53 in 6.2 mi Calm Calm - N/A   Partly Cloudy
6:50 AM 50.0 °F 48.2 °F 94% 29.53 in 6.2 mi Calm Calm - N/A   Scattered Clouds
7:20 AM 50.0 °F 48.2 °F 94% 29.53 in 6.2 mi Calm Calm - N/A   Scattered Clouds
7:50 AM 50.0 °F 48.2 °F 94% 29.53 in 6.2 mi Calm Calm - N/A   Scattered Clouds
8:20 AM 50.0 °F 48.2 °F 94% 29.53 in 6.2 mi Calm Calm - N/A   Scattered Clouds
8:50 AM 50.0 °F 50.0 °F 100% 29.56 in 6.2 mi Calm Calm - N/A   Mostly Cloudy
9:00 AM 50 °F 50 °F 98% 29.56 in 9 mi Calm Calm - -   Scattered Clouds
9:20 AM 51.8 °F 50.0 °F 94% 29.56 in 6.2 mi Calm Calm - N/A   Mostly Cloudy
9:50 AM 51.8 °F 50.0 °F 94% 29.56 in 6.2 mi Calm Calm - N/A   Mostly Cloudy
10:20 AM 53.6 °F 51.8 °F 94% 29.56 in 6.2 mi Calm Calm - N/A Rain Light Rain
10:50 AM 57.2 °F 53.6 °F 88% 29.56 in 6.2 mi Calm Calm - N/A   Mostly Cloudy
11:20 AM 59.0 °F 55.4 °F 88% 29.56 in 6.2 mi South 3.5 mph - N/A   Mostly Cloudy
11:50 AM 60.8 °F 53.6 °F 77% 29.56 in 6.2 mi Calm Calm - N/A   Mostly Cloudy
12:20 PM 62.6 °F 51.8 °F 68% 29.59 in 6.2 mi WSW 5.8 mph - N/A   Mostly Cloudy
12:50 PM 60.8 °F 51.8 °F 72% 29.59 in 6.2 mi West 5.8 mph - N/A Rain Light Rain Showers
1:20 PM 62.6 °F 53.6 °F 72% 29.59 in 6.2 mi WSW 5.8 mph - N/A   Scattered Clouds
1:50 PM 62.6 °F 51.8 °F 68% 29.59 in 6.2 mi West 9.2 mph - N/A   Scattered Clouds
2:20 PM 62.6 °F 51.8 °F 68% 29.59 in 6.2 mi West 8.1 mph - N/A   Scattered Clouds
2:50 PM 64.4 °F 50.0 °F 59% 29.59 in 6.2 mi West 16.1 mph - N/A   Scattered Clouds
3:00 PM 64 °F 50 °F 51% 29.60 in 12 mi West 16.1 mph - -   Partly Cloudy
3:20 PM 64.4 °F 50.0 °F 59% 29.59 in 6.2 mi West 17.3 mph - N/A   Scattered Clouds
4:20 PM 64.4 °F 50.0 °F 59% 29.59 in 6.2 mi West 16.1 mph - N/A   Scattered Clouds
4:50 PM 62.6 °F 50.0 °F 63% 29.62 in 6.2 mi West 16.1 mph - N/A   Scattered Clouds
5:20 PM 62.6 °F 50.0 °F 63% 29.62 in 6.2 mi NW 13.8 mph - N/A   Scattered Clouds
5:50 PM 62.6 °F 50.0 °F 63% 29.62 in 6.2 mi NW 15.0 mph - N/A   Scattered Clouds
6:20 PM 62.6 °F 50.0 °F 63% 29.62 in 6.2 mi NW 13.8 mph - N/A   Scattered Clouds
6:50 PM 60.8 °F 50.0 °F 68% 29.62 in 6.2 mi NW 13.8 mph - N/A   Mostly Cloudy
7:20 PM 59.0 °F 50.0 °F 72% 29.62 in 6.2 mi NW 11.5 mph - N/A   Mostly Cloudy
7:50 PM 59.0 °F 50.0 °F 72% 29.65 in 6.2 mi NW 11.5 mph - N/A   Mostly Cloudy
8:20 PM 57.2 °F 50.0 °F 77% 29.65 in 6.2 mi NW 11.5 mph - N/A   Mostly Cloudy
8:50 PM 57.2 °F 50.0 °F 77% 29.68 in 6.2 mi NW 9.2 mph - N/A   Mostly Cloudy
9:00 PM 57 °F 50 °F 69% 29.68 in 6 mi NW 9.2 mph - -   Partly Cloudy
9:20 PM 55.4 °F 50.0 °F 82% 29.68 in 6.2 mi WNW 6.9 mph - N/A   Mostly Cloudy
10:20 PM 55.4 °F 48.2 °F 77% 29.71 in 6.2 mi WNW 6.9 mph - N/A   Scattered Clouds
10:50 PM 55.4 °F 50.0 °F 82% 29.74 in 6.2 mi Calm Calm - N/A   Scattered Clouds
11:20 PM 55.4 °F 50.0 °F 82% 29.74 in 6.2 mi Calm Calm - N/A   Scattered Clouds
11:50 PM 55.4 °F 48.2 °F 77% 29.74 in 6.2 mi Calm Calm - N/A   Scattered Clouds